Wind_Speed
12 11 12 11 10 9 5 4 1 3 2 1 2 1 4 4 1 4 7 5 2 2 1 4 5 4 6 7 10 8 6 1 2 3 3 3 14 25 19 18 28 25 24 23 21 21 22 23 21 20 19 17 15 13 13 12 13 14 15 17 20 22 22 23 22 21 20 21 21 20 19 19 18 18 17 17 16 16 15 14 14 14 14 14 14 14 13 13 13 13 14 15 15 15 14 14 14
11 10 11 8 8 5 1 3 2 2 2 1 3 3 5 3 3 7 9 7 3 3 5 9 10 8 9 10 9 5 7 7 2 2 4 13 20 19 20 25 29 25 25 24 23 23 24 23 22 21 19 17 15 13 12 12 13 13 14 16 19 21 22 22 21 20 19 20 20 19 19 18 18 18 17 17 17 16 15 14 14 14 14 14 14 13 13 13 13 13 14 15 15 14 13 13 13
10 10 9 5 4 4 1 3 2 1 2 4 5 4 4 3 6 8 8 5 6 8 9 8 7 5 6 7 5 4 3 5 6 4 7 17 15 16 24 28 28 27 26 24 23 24 25 24 23 21 19 18 15 14 13 12 13 12 14 15 19 21 20 20 19 18 19 19 19 18 18 18 18 18 18 17 17 16 15 14 14 14 13 13 13 13 13 13 13 13 14 14 14 12 12 11 11
9 9 8 3 2 4 3 2 2 4 3 5 4 6 4 5 9 5 5 5 4 4 3 5 5 4 6 9 4 5 5 3 4 4 6 11 13 22 28 27 28 27 26 25 24 25 26 25 23 21 19 18 16 14 13 12 12 12 13 15 18 20 20 19 17 17 18 18 18 18 18 18 18 18 18 18 17 16 15 15 14 13 13 12 12 13 13 13 13 13 13 13 12 10 10 9 9
8 7 4 3 2 1 2 1 2 4 5 5 2 7 5 7 8 0 3 7 4 3 3 3 4 1 6 7 2 2 5 6 4 4 5 10 19 28 28 28 28 27 26 25 25 26 25 25 23 21 19 18 16 15 13 12 12 12 13 14 17 20 19 18 17 17 17 18 17 17 17 17 17 17 17 17 16 16 15 15 14 13 13 13 12 12 12 13 13 13 13 11 10 9 8 8 8
6 4 3 3 2 1 2 1 2 3 5 5 3 7 5 7 5 3 3 6 4 5 5 2 6 7 6 4 4 3 5 6 5 5 9 18 26 29 29 29 28 27 26 25 25 26 25 25 23 21 19 18 17 15 13 12 12 12 13 14 16 18 17 16 17 16 16 17 16 16 16 16 16 17 17 17 16 15 15 14 14 13 12 12 12 11 11 11 12 12 11 9 9 8 8 8 7
5 3 2 3 1 1 3 3 4 4 5 6 5 6 6 7 2 4 3 4 5 5 4 2 8 11 5 2 4 4 4 6 8 10 16 25 29 29 29 28 27 25 24 24 25 25 24 24 22 21 19 19 17 15 13 12 12 12 13 14 16 15 15 16 16 15 15 16 15 15 15 15 15 16 17 16 14 14 13 13 13 12 12 11 10 9 9 9 9 10 9 8 8 9 9 8 8
3 1 1 3 1 2 3 3 4 4 5 5 5 6 8 10 3 1 1 1 2 2 3 3 5 8 5 3 4 4 8 9 12 17 24 29 30 29 27 27 26 23 23 24 24 23 23 22 22 20 20 19 17 15 13 12 12 12 13 14 15 13 13 15 14 14 14 15 14 14 14 14 14 15 14 14 13 12 12 11 11 11 11 10 9 8 7 6 7 8 8 7 8 10 10 9 9
3 2 1 2 2 1 0 3 4 4 5 5 6 8 10 10 5 3 4 3 3 1 2 3 1 7 8 8 6 4 9 13 20 24 28 29 29 28 26 27 25 23 22 22 23 22 21 21 20 19 19 18 16 15 13 12 11 12 13 13 14 13 13 14 13 13 13 14 13 13 13 13 13 13 12 12 11 10 9 9 9 9 9 8 7 6 5 5 5 7 7 8 10 12 10 10 10
3 2 1 1 3 1 3 3 4 4 5 6 7 10 11 9 6 5 4 5 5 3 1 4 7 11 12 9 5 3 10 20 24 23 24 26 27 26 24 24 25 24 22 20 21 21 20 19 18 18 17 16 15 14 12 11 11 12 12 12 13 12 12 14 13 13 13 13 12 12 12 12 11 11 11 11 10 9 8 7 7 7 7 6 6 5 4 4 4 7 7 8 11 12 11 10 9
2 3 2 3 2 3 4 4 4 5 6 5 7 11 11 9 7 5 5 6 4 5 7 8 11 14 12 7 4 6 17 22 22 21 21 23 24 24 23 23 24 23 21 20 20 19 19 17 16 16 15 14 13 12 11 10 11 12 12 12 12 11 11 13 13 12 12 12 11 11 11 11 10 9 9 9 9 9 8 7 6 5 5 5 6 5 4 4 4 7 8 10 12 12 10 9 8
2 2 4 3 2 4 4 3 5 5 7 5 7 9 7 7 6 5 7 9 6 6 7 5 9 11 11 6 3 10 18 18 20 22 21 22 22 23 22 22 21 20 21 21 20 19 18 17 15 14 12 12 11 9 9 10 12 12 11 12 12 11 11 13 12 12 12 11 10 11 10 10 9 8 7 7 7 7 6 6 5 4 4 5 5 5 4 4 5 7 10 12 13 12 10 8 8
3 2 5 2 3 3 3 2 5 5 6 5 6 7 3 5 7 7 8 11 11 9 4 4 11 9 8 6 4 9 12 15 20 22 21 22 22 22 21 20 19 20 21 21 20 19 18 17 15 13 11 10 9 8 9 11 11 11 12 12 12 11 11 12 12 12 11 10 10 10 10 9 8 7 6 5 4 4 4 4 3 3 3 4 4 4 4 4 5 6 9 13 14 12 10 8 7
3 2 5 2 1 2 3 2 4 3 5 6 3 7 3 3 6 7 11 12 9 7 4 8 12 9 7 6 5 6 10 17 21 22 22 20 20 20 19 19 19 20 20 20 20 19 19 17 14 13 11 10 10 9 10 10 10 12 13 12 12 11 11 10 10 11 10 9 8 8 8 7 6 5 4 3 2 2 2 1 1 2 2 3 3 3 3 5 5 5 8 12 14 13 11 9 7
4 1 4 1 2 1 2 3 4 3 4 5 3 8 4 3 2 10 13 12 5 2 8 9 7 8 8 8 6 8 13 20 22 24 22 19 19 19 20 20 20 20 20 19 19 18 18 16 14 13 11 11 11 11 10 9 10 12 12 12 12 11 10 9 9 9 9 9 8 7 6 6 4 2 1 0 1 1 2 1 1 1 1 2 2 1 3 4 4 4 6 11 14 14 12 10 9
3 2 4 0 2 2 3 4 3 4 5 4 4 6 4 6 4 6 4 8 9 2 5 5 3 6 12 8 8 15 20 24 24 25 24 20 20 20 20 20 20 20 19 19 18 17 16 15 14 13 11 11 10 11 11 9 10 11 11 11 11 10 8 8 8 9 9 9 8 7 6 5 3 2 2 2 3 3 3 3 3 1 0 0 1 1 2 3 3 3 6 11 15 15 13 10 10
2 4 2 1 3 3 3 4 3 3 5 7 6 8 4 4 6 5 6 9 12 6 6 4 3 7 11 9 17 24 24 26 27 26 24 22 21 20 19 19 20 19 18 18 17 16 15 14 14 13 12 11 10 10 11 10 9 9 10 10 9 9 7 7 8 9 9 10 9 8 6 4 4 3 4 4 4 4 4 3 3 3 2 1 1 2 2 3 3 2 5 12 15 15 13 11 10
2 3 2 2 3 4 4 5 4 2 5 8 8 6 2 1 5 5 9 10 11 12 9 10 12 11 13 17 24 25 26 28 27 26 23 21 19 18 17 18 19 18 18 18 16 16 15 14 13 13 12 11 11 11 13 12 10 9 10 11 10 9 7 7 7 8 9 9 9 8 6 5 4 5 5 5 5 5 4 3 2 3 3 2 1 2 2 3 3 1 5 12 15 15 13 11 9
3 3 2 4 4 5 5 4 4 4 5 9 10 4 4 6 6 4 6 7 11 15 10 12 15 13 14 17 20 21 26 26 23 23 21 21 18 16 17 17 17 17 18 18 17 16 14 14 13 13 13 11 11 12 13 12 10 10 11 12 11 11 9 8 8 7 8 7 6 6 6 5 4 3 2 2 3 3 4 3 3 3 4 3 2 1 2 2 3 2 4 11 15 15 12 11 9
3 3 2 5 6 6 5 6 7 7 6 7 10 5 2 6 3 3 8 10 10 14 12 12 14 14 13 12 15 19 22 20 20 20 19 19 16 16 18 18 18 18 19 19 18 17 14 14 13 12 12 11 11 12 13 12 11 11 12 12 12 12 10 10 9 7 7 7 5 6 6 5 4 3 2 2 2 2 2 3 4 4 5 5 4 2 1 1 2 2 3 10 14 14 12 10 8
2 4 5 6 5 5 7 8 8 7 6 5 8 5 1 3 2 7 14 12 6 10 13 15 17 18 17 13 13 16 17 16 17 17 16 17 15 15 17 18 20 19 20 20 18 17 15 14 13 12 11 11 11 11 13 11 10 11 11 11 11 11 9 10 9 8 8 7 6 7 7 5 4 4 3 3 2 1 1 2 3 5 6 7 6 3 2 1 1 1 4 10 13 12 10 9 8
1 3 6 6 4 5 8 6 5 5 5 3 5 5 1 2 4 8 12 11 7 9 11 15 20 20 19 17 15 14 13 12 13 14 15 15 16 17 18 19 20 19 19 19 18 16 14 13 12 12 11 10 10 11 12 11 10 11 11 10 10 10 9 9 9 9 8 7 7 7 8 7 5 5 4 4 4 3 3 3 3 4 7 8 7 5 3 2 1 1 5 10 12 11 10 9 8
2 4 4 6 6 6 8 5 4 4 5 3 4 4 1 6 6 3 3 4 8 11 12 16 19 18 19 16 14 13 11 11 11 13 16 17 19 20 21 20 19 18 18 16 16 15 14 13 12 12 11 11 11 11 12 11 10 10 10 9 9 9 9 9 9 8 7 7 8 8 8 7 7 7 7 7 7 6 5 4 4 4 6 9 9 7 5 4 3 3 6 10 12 11 11 8 5
4 4 5 6 7 8 10 8 6 6 6 6 3 3 3 7 6 1 6 6 10 14 16 17 17 17 17 14 13 12 11 10 11 15 19 20 20 20 19 18 17 17 17 15 14 13 14 13 12 12 11 11 11 12 12 12 11 10 9 8 8 8 8 8 8 8 7 7 8 8 8 8 8 8 9 10 10 9 7 5 5 5 5 7 10 10 8 6 5 5 6 10 12 12 11 7 5
4 5 6 5 5 8 10 8 8 8 6 2 5 7 4 6 7 6 6 10 14 16 18 16 14 14 13 12 13 11 9 10 11 15 14 13 15 16 16 16 17 17 17 16 14 13 13 12 12 11 11 11 10 11 11 11 11 10 9 8 8 8 8 7 7 7 8 8 8 9 9 9 10 10 11 11 11 12 10 8 7 6 6 6 10 11 10 8 7 7 7 9 11 12 12 11 10
5 6 5 5 6 8 8 7 8 7 2 4 8 9 7 7 10 8 6 6 14 17 17 16 14 14 12 10 10 9 9 9 10 11 10 11 13 14 14 15 16 16 16 17 15 13 12 12 11 10 10 10 9 9 9 9 9 9 9 8 8 8 7 7 7 7 8 9 10 10 10 11 11 12 12 12 13 13 13 12 10 8 7 6 8 11 12 11 10 9 9 9 11 12 13 13 13
5 5 5 7 8 8 5 7 9 4 2 6 9 9 6 2 5 4 3 2 10 17 16 15 14 12 11 8 7 6 6 7 8 11 12 12 12 13 13 13 12 12 14 16 15 12 11 12 11 10 10 9 8 7 7 8 8 8 8 8 8 7 7 8 8 8 9 10 11 12 13 13 14 14 14 14 14 15 15 15 14 12 10 8 8 9 11 12 13 12 11 11 11 12 13 13 14
3 2 5 7 7 6 6 8 8 3 1 7 12 8 1 4 3 9 7 3 5 16 18 15 14 11 10 9 6 4 4 7 9 10 9 9 10 12 14 13 12 12 13 14 14 11 10 10 10 9 9 9 9 7 7 8 8 8 9 9 9 8 8 9 9 10 11 12 12 13 14 15 16 15 15 15 15 16 16 15 15 15 14 11 10 11 11 12 13 14 14 14 14 14 15 15 16
5 2 2 7 5 3 7 8 6 1 1 6 11 5 7 4 6 11 11 7 5 12 17 14 12 10 10 8 6 5 5 8 10 9 8 9 10 13 14 13 13 12 12 12 12 12 10 10 9 8 9 9 9 8 8 8 9 10 10 10 10 10 10 10 11 11 12 12 13 14 14 15 15 15 14 14 14 16 16 16 16 15 15 14 14 14 13 13 13 13 14 15 16 17 17 18 18
5 2 2 4 6 4 7 5 4 2 1 3 8 3 5 1 10 13 13 14 10 10 13 13 11 9 9 8 7 6 7 8 9 10 11 11 13 14 14 13 13 13 12 11 11 12 11 10 9 8 8 9 9 9 8 7 9 9 10 10 10 11 11 11 12 11 11 12 12 13 14 15 15 15 13 13 14 15 16 16 16 16 15 14 14 15 16 16 15 15 15 16 17 18 19 20 19
2 2 0 1 1 4 7 3 4 4 3 3 8 4 3 4 9 10 11 16 15 11 11 12 10 9 8 7 6 6 7 9 11 12 12 13 14 14 14 13 12 11 11 11 10 11 10 9 8 8 8 9 9 9 9 7 7 8 8 9 9 10 10 11 10 10 10 11 12 12 14 15 15 15 14 14 15 15 16 16 16 16 14 14 14 14 15 17 17 18 18 18 18 19 19 20 19
2 0 3 2 3 4 7 4 7 8 3 6 7 3 3 5 7 7 9 15 16 13 12 13 12 11 10 7 6 6 7 10 13 13 12 13 14 15 15 14 12 11 11 10 9 9 9 8 7 7 7 7 9 9 8 7 7 7 6 6 7 8 9 9 9 9 10 12 13 14 13 13 13 13 13 14 14 15 17 18 17 16 15 14 14 14 14 16 17 18 20 20 21 21 21 21 21
3 1 2 2 3 2 4 4 5 6 1 5 4 4 4 3 7 9 10 14 17 16 14 13 10 8 9 7 6 6 7 8 10 12 13 14 14 15 15 15 14 12 11 12 10 10 9 8 7 5 5 6 7 7 6 5 5 5 4 5 6 6 7 7 7 9 10 12 14 14 13 12 11 11 10 11 12 13 15 17 17 17 16 14 13 14 15 16 17 18 19 19 20 22 22 23 22
3 1 2 3 3 3 1 3 4 2 4 1 2 5 6 5 11 13 13 15 16 16 14 11 6 3 6 7 6 7 7 6 7 10 12 13 14 14 13 14 14 13 12 12 12 11 11 10 8 5 4 4 5 4 4 4 4 4 4 4 5 4 4 5 6 8 10 12 14 14 14 13 13 12 10 8 10 12 13 14 15 15 15 15 15 16 16 17 18 18 19 19 19 20 21 22 22
3 2 2 2 2 2 2 4 3 3 5 2 2 4 6 8 13 13 13 15 14 13 12 11 9 7 8 8 7 8 8 7 7 10 13 15 16 15 13 13 12 11 11 10 9 9 10 8 8 6 5 5 4 2 3 3 3 3 4 4 5 4 4 5 7 9 11 12 13 13 13 14 15 16 14 10 9 10 11 12 13 13 14 14 16 17 17 17 18 19 21 21 20 20 20 22 22
7 5 4 4 2 2 4 4 2 6 8 3 1 3 7 11 10 5 4 6 11 13 11 11 12 10 10 8 8 9 9 8 9 13 16 17 17 17 17 17 15 13 12 11 9 8 7 6 5 5 5 4 4 2 3 4 4 5 4 4 5 4 4 5 7 10 12 12 12 12 12 13 14 15 15 13 11 11 11 11 11 12 13 14 16 17 18 19 19 21 22 22 22 21 22 22 22
5 4 4 3 2 3 4 2 2 5 7 5 4 4 6 7 6 4 4 3 3 9 9 11 12 10 9 9 9 11 9 8 13 17 18 19 19 20 21 22 21 19 17 16 15 13 11 10 10 10 8 5 4 3 1 1 3 4 4 4 4 4 4 5 7 9 11 11 11 11 11 11 12 12 13 13 13 13 13 14 15 15 15 16 16 16 17 18 19 21 22 22 21 21 22 22 21
4 4 3 1 2 4 4 1 3 1 6 2 2 7 7 6 7 6 3 4 5 2 3 10 13 10 8 10 10 9 8 9 13 15 17 20 20 21 24 24 24 22 21 20 19 19 18 16 17 15 12 10 8 6 3 2 2 3 3 4 5 5 6 6 7 8 10 10 10 10 10 11 11 12 12 12 13 14 15 16 17 17 17 16 15 15 16 17 18 19 21 22 21 20 20 22 20
4 3 4 1 2 3 4 3 3 3 5 2 2 8 7 7 9 6 4 5 2 6 2 9 12 10 7 10 9 8 9 10 10 10 13 19 19 21 24 24 24 23 23 22 22 21 21 19 18 15 13 11 8 5 3 3 3 2 2 3 4 5 6 6 7 9 10 9 8 9 10 11 12 12 12 12 12 13 14 15 16 16 16 16 16 18 19 19 19 20 20 21 22 21 20 21 20
4 4 5 3 3 2 1 5 6 6 4 6 7 7 6 7 8 6 5 5 2 3 4 8 8 9 8 9 8 8 11 11 9 8 10 15 17 20 22 21 21 24 23 23 22 22 20 19 18 15 14 11 8 6 4 3 2 1 1 2 3 5 6 6 7 9 9 8 8 8 9 10 11 11 10 10 11 12 13 13 14 14 15 15 17 19 20 19 19 20 19 19 20 19 19 19 19
3 4 5 4 3 3 3 1 3 7 6 5 9 6 2 5 6 6 4 3 2 1 4 6 7 9 10 10 8 7 11 10 8 9 9 11 15 18 20 19 21 24 23 22 22 21 20 19 17 16 14 12 9 7 6 4 3 2 3 3 5 7 9 10 10 12 11 10 10 9 9 9 10 10 10 9 11 12 13 13 13 13 14 14 15 17 19 19 20 19 18 19 19 18 19 19 19
3 5 7 7 6 4 6 5 4 6 2 3 4 3 0 3 4 6 6 5 4 1 2 4 6 10 11 9 8 8 10 9 9 9 9 11 14 16 18 19 22 23 21 22 21 20 19 18 16 16 15 13 11 9 7 5 5 5 6 7 9 11 13 14 13 13 13 12 12 11 10 10 11 11 11 11 11 12 13 14 14 14 14 14 15 17 19 19 20 19 17 19 20 20 19 19 20
3 5 8 9 7 7 7 7 4 3 2 6 3 2 2 2 2 5 7 8 7 4 5 5 3 7 9 7 8 9 8 8 9 10 10 11 13 15 17 18 21 21 19 21 20 19 18 17 16 15 15 14 12 10 8 7 7 7 8 10 12 13 14 13 12 12 12 11 10 10 11 12 12 13 12 12 12 12 13 14 14 15 14 14 14 16 18 19 19 19 18 18 20 21 20 18 20
3 5 9 10 8 7 7 6 5 3 2 4 3 1 2 3 4 5 7 8 7 5 7 7 4 6 8 7 8 9 8 8 9 10 9 10 12 15 15 17 19 19 19 20 20 20 18 17 16 15 14 14 12 10 8 8 9 9 10 11 12 13 13 12 11 10 10 10 9 10 10 11 12 13 13 13 13 13 14 15 15 14 14 14 13 14 16 17 17 17 17 18 19 20 21 19 20
4 6 10 10 9 8 7 6 4 2 3 3 4 1 3 2 4 7 7 7 6 5 6 8 8 8 8 8 9 10 10 8 8 10 9 9 13 15 16 18 20 20 20 20 20 20 18 18 16 15 15 13 11 9 8 8 9 9 9 10 11 11 11 10 10 10 10 10 10 10 10 10 11 12 13 13 13 13 14 15 15 15 14 14 14 14 15 16 16 17 17 18 18 20 21 20 19
4 6 6 5 6 6 6 6 4 3 4 7 8 4 3 1 2 5 6 6 7 7 7 8 9 11 9 8 9 10 10 8 7 10 11 10 13 16 17 19 21 20 19 18 18 18 18 19 18 17 16 14 13 11 9 9 8 8 8 9 10 10 10 10 10 11 11 11 11 12 12 11 11 12 12 13 13 12 13 14 15 14 14 14 14 15 16 16 16 16 16 16 17 19 20 20 19
5 5 3 3 1 1 3 3 4 4 3 7 10 7 3 1 3 5 5 5 9 10 9 10 9 11 10 8 9 9 9 7 6 9 12 11 14 16 18 19 20 20 19 18 18 17 18 19 19 18 16 15 15 13 12 12 10 9 9 9 10 11 11 10 11 13 13 13 13 13 12 12 12 13 12 13 12 12 12 13 14 14 14 14 14 15 16 17 17 17 16 15 16 17 18 20 21
5 4 3 1 3 2 3 3 3 4 6 6 9 7 3 3 5 5 4 3 9 11 10 12 11 10 10 8 8 8 9 7 6 8 9 9 12 15 17 17 18 19 18 19 19 17 17 18 18 19 17 15 15 14 15 14 14 14 13 12 13 13 12 12 13 14 15 15 15 14 13 13 14 14 14 14 13 13 12 12 13 14 14 14 15 16 15 15 16 17 17 16 16 17 18 19 21
5 4 6 4 1 1 2 1 1 5 5 5 7 10 3 5 4 3 5 6 8 9 9 12 12 11 10 10 8 7 8 7 6 6 6 6 9 11 13 14 15 17 17 19 19 18 18 18 18 20 19 17 16 15 15 15 15 15 15 15 15 14 14 14 15 15 15 16 16 15 16 16 17 16 16 16 15 14 13 12 13 14 15 16 16 15 15 14 15 16 16 17 18 19 19 20 20
7 6 6 6 4 4 5 3 1 3 3 5 3 10 5 3 2 3 5 8 8 9 10 11 12 11 10 10 8 7 8 7 6 6 5 6 7 9 10 11 13 17 18 19 18 18 20 20 19 20 20 18 17 16 15 15 16 15 14 14 14 14 15 15 16 16 15 16 16 16 17 17 17 17 16 16 15 14 13 13 13 12 14 16 15 15 15 15 15 15 16 16 17 18 19 19 20
6 5 6 4 5 5 4 4 3 3 2 4 1 6 3 1 1 4 3 9 9 10 10 10 11 10 9 9 8 8 7 6 6 6 6 7 8 9 10 12 16 19 20 19 18 19 21 21 20 20 20 18 17 17 17 17 16 15 14 14 13 14 14 15 15 15 15 15 16 16 17 17 17 16 15 15 15 14 14 14 13 12 13 15 16 17 17 17 17 16 16 17 17 18 19 19 20
4 4 6 5 5 5 2 3 6 5 3 1 1 1 1 1 1 2 7 11 11 11 12 12 10 8 9 9 8 7 6 6 6 6 6 8 10 11 12 15 18 20 21 21 20 21 22 22 21 20 20 19 18 18 17 17 16 15 14 14 13 13 13 14 14 15 15 16 16 17 17 17 17 16 15 14 15 15 15 14 14 13 13 16 18 19 20 20 20 20 19 19 19 20 20 20 21
3 4 6 5 3 6 3 2 2 4 4 2 1 1 1 1 1 4 11 12 12 13 13 12 11 10 11 9 7 7 6 6 6 5 6 8 10 13 14 16 19 20 21 21 21 22 22 22 22 21 20 20 19 18 17 16 16 16 16 15 14 14 14 14 15 16 16 17 17 18 19 19 19 18 17 16 16 15 15 16 16 16 17 20 21 21 22 23 22 23 22 22 22 22 21 21 21
5 6 7 2 3 2 2 2 2 3 3 1 1 3 4 3 1 5 11 11 11 13 13 12 11 11 11 9 8 7 7 6 6 6 7 8 11 14 15 16 19 20 21 21 21 21 23 23 22 22 21 20 19 18 17 17 16 17 16 15 15 15 15 16 17 18 18 19 20 20 21 22 22 21 20 19 19 18 17 18 18 19 21 23 23 23 24 24 24 24 24 24 24 24 24 22 21
4 6 7 5 3 3 1 3 3 2 2 1 1 4 4 4 4 8 12 12 12 13 12 13 12 11 11 10 9 8 7 6 6 6 5 7 11 14 16 17 19 20 20 20 21 23 24 24 23 23 22 21 20 19 18 18 18 18 17 16 15 15 16 17 18 19 20 21 21 21 22 23 23 22 22 21 21 20 19 19 20 21 23 25 26 27 27 27 27 26 26 25 24 25 25 25 23
2 5 6 4 4 4 3 3 3 4 3 2 3 4 4 3 6 12 15 14 15 15 12 12 12 11 10 10 9 8 7 6 6 5 5 8 13 14 16 18 19 21 22 22 24 25 25 24 23 23 22 21 20 20 20 20 19 18 17 16 16 16 16 17 18 20 22 23 22 22 22 23 23 24 23 22 22 21 20 20 19 20 24 28 29 30 31 31 31 30 30 29 26 24 24 25 25
4 5 5 3 2 2 2 1 2 5 4 3 3 3 4 3 6 13 15 13 13 14 12 11 11 10 9 10 9 8 7 6 5 6 7 10 13 14 16 19 22 24 25 26 26 26 25 24 23 23 22 21 20 20 20 20 19 18 17 16 16 16 17 17 18 19 21 22 22 22 22 23 24 24 24 24 23 22 21 21 21 21 25 28 29 31 32 32 32 32 31 31 30 27 25 26 26
7 6 6 5 4 4 3 2 0 3 4 5 4 3 4 3 3 9 12 11 11 12 13 12 11 11 10 9 9 8 7 6 6 7 9 12 13 15 18 22 25 26 27 26 25 25 24 24 23 22 22 21 20 20 20 19 18 17 15 15 15 16 17 17 17 17 18 19 20 21 21 22 23 23 23 25 25 24 23 23 23 24 26 29 30 31 33 33 33 33 32 32 32 29 28 27 26
Wind_Direction
329 332 333 325 326 331 348 59 44 327 85 169 259 252 260 234 262 276 275 294 302 286 11 75 65 65 99 116 137 116 53 2 204 159 189 146 138 158 167 163 157 149 149 152 153 153 154 157 161 164 165 163 156 147 136 125 122 119 120 126 133 133 130 127 125 122 118 118 117 115 112 112 111 111 111 111 112 112 113 110 109 109 110 109 109 108 105 105 104 106 112 115 111 107 106 104 102
336 339 336 327 343 353 320 70 96 309 69 254 261 198 263 310 326 278 273 278 226 144 101 92 87 80 96 119 130 104 46 25 41 105 100 117 128 152 162 159 157 151 151 153 155 155 156 159 163 166 167 163 157 150 139 130 126 123 123 126 133 132 130 128 125 121 119 120 119 116 116 116 115 115 114 114 114 114 113 112 111 110 110 109 108 107 106 105 104 107 114 117 111 107 106 105 105
343 342 342 340 7 35 59 38 113 181 143 223 261 238 279 310 255 260 284 272 172 135 111 99 89 68 79 91 59 52 62 41 60 62 105 124 129 150 155 154 154 152 152 154 158 158 157 161 166 167 167 163 158 153 144 136 130 126 126 126 133 133 130 129 123 121 123 124 121 120 121 120 120 119 118 117 116 115 115 114 111 109 109 108 107 106 106 105 106 110 116 120 113 109 109 109 108
349 344 345 21 43 31 67 52 150 148 172 221 259 258 252 241 242 250 298 282 177 140 108 96 72 12 59 88 82 71 95 105 73 58 115 136 147 153 152 151 152 153 154 157 160 159 159 162 167 168 166 162 160 158 148 140 134 130 129 129 135 136 132 129 122 122 126 127 123 123 125 123 122 121 120 119 118 117 116 115 112 109 108 108 109 109 108 106 108 114 121 123 119 115 113 112 108
345 348 350 74 96 37 109 112 135 148 200 202 212 258 238 225 245 347 305 281 258 320 344 99 92 41 69 84 149 104 115 133 107 65 103 139 150 151 152 153 153 155 157 160 160 159 161 163 166 168 165 162 162 159 151 144 139 136 134 131 135 137 134 128 122 124 127 125 124 126 127 126 124 123 123 121 120 119 117 116 113 110 108 108 109 110 111 109 110 117 127 130 127 123 118 115 104
341 6 44 74 111 170 128 162 182 202 223 176 189 253 237 229 238 70 325 301 319 348 346 64 111 117 89 58 45 97 149 132 116 117 132 146 151 153 155 156 156 157 159 160 160 160 162 165 167 167 165 164 163 159 153 147 144 141 138 135 136 135 133 128 125 127 128 125 127 129 129 127 126 126 124 121 120 120 119 118 116 113 110 110 111 113 114 110 111 120 131 135 133 129 127 121 105
350 6 31 64 20 36 120 193 206 230 243 181 202 248 258 256 227 64 350 337 356 360 10 75 119 108 84 78 59 62 121 118 130 148 152 151 154 156 156 157 156 156 159 160 161 162 162 166 168 167 166 164 163 159 155 149 147 145 141 139 135 130 128 128 127 130 130 127 130 130 129 128 129 129 126 123 122 122 122 121 118 116 115 115 116 118 117 111 111 119 131 138 137 134 133 124 106
20 16 32 100 74 6 122 227 231 215 243 219 237 260 268 269 261 64 240 274 316 349 79 124 119 92 66 76 82 54 80 116 143 150 154 153 156 158 157 157 155 155 157 159 161 161 163 168 168 167 166 164 163 159 154 149 148 147 144 141 136 128 126 130 131 133 131 130 131 130 130 130 130 128 127 124 120 119 118 118 116 117 120 124 127 124 118 113 113 122 133 140 141 142 139 127 111
39 57 69 102 143 308 313 268 255 229 253 257 267 267 264 268 263 205 201 218 190 150 162 197 139 98 96 81 92 71 81 127 142 147 154 154 159 158 157 157 154 154 154 158 159 159 165 168 167 166 165 164 161 156 153 148 148 149 145 142 138 131 128 135 137 137 135 132 133 131 131 131 130 127 127 125 119 118 115 116 116 117 123 127 130 124 118 112 118 132 139 143 146 149 145 131 116
32 26 150 115 126 217 290 264 249 256 258 253 258 258 261 266 254 221 185 184 172 130 104 95 90 112 115 102 98 105 124 138 139 145 155 156 159 157 155 156 155 152 151 156 156 159 163 164 165 164 163 159 157 156 152 148 149 151 148 143 137 130 131 138 139 141 139 133 135 134 134 133 131 128 125 124 121 120 115 113 114 119 124 122 120 115 111 106 121 137 142 149 153 158 151 134 116
34 342 110 97 97 193 247 255 266 275 271 278 266 256 252 253 256 242 152 155 165 135 135 97 100 116 111 110 93 128 139 140 142 149 156 156 156 155 155 155 154 149 147 153 154 158 158 159 163 161 159 156 156 157 153 150 151 153 153 146 136 131 136 140 140 144 142 135 138 139 138 135 132 129 125 122 120 120 116 112 109 117 125 120 115 108 102 101 115 132 143 152 160 165 153 136 114
102 314 68 103 166 197 218 240 276 280 280 284 265 262 237 229 242 216 155 152 153 152 169 125 128 126 109 114 115 138 143 148 152 151 154 155 155 157 157 153 150 146 146 152 154 157 155 156 159 155 154 155 158 159 155 151 152 155 153 145 139 142 145 143 143 146 145 142 143 142 143 140 137 135 130 123 117 117 115 112 109 114 128 128 117 106 93 87 99 123 144 155 164 167 155 139 112
131 168 89 139 194 183 196 208 270 289 291 262 242 270 222 209 230 201 158 150 154 165 202 153 144 127 108 118 127 142 150 163 155 148 153 154 155 155 153 149 147 145 148 153 154 155 155 155 155 151 150 156 161 155 149 145 149 154 151 146 146 152 151 147 148 149 148 147 147 147 149 149 147 143 137 129 113 105 104 108 112 115 131 135 118 104 80 71 82 111 142 158 166 167 156 141 108
157 163 117 187 230 162 189 220 268 271 277 258 252 291 271 224 226 173 143 145 161 174 145 136 138 106 108 128 133 155 162 166 152 146 153 152 153 149 146 147 146 147 150 154 155 156 156 155 155 154 154 156 154 142 139 140 143 150 151 149 150 153 152 151 154 154 152 154 155 154 156 159 161 157 149 137 98 77 73 85 122 121 124 138 122 94 63 58 68 96 138 159 167 166 157 141 104
174 144 101 147 294 274 214 212 231 202 259 272 299 310 322 329 199 145 144 142 135 142 110 134 141 97 149 170 156 175 167 159 149 147 150 146 146 143 143 145 146 149 153 155 155 157 156 156 156 155 157 154 149 138 135 137 140 148 149 150 152 153 153 156 158 156 159 164 167 164 163 166 170 177 170 182 342 357 2 350 275 181 111 129 127 83 50 47 58 90 133 159 166 164 156 138 104
162 99 75 141 247 246 219 214 204 200 264 285 310 331 6 354 26 119 141 125 117 87 87 155 225 132 168 178 143 161 159 150 146 145 143 137 136 136 139 142 146 150 154 156 155 158 158 157 157 157 159 153 149 140 134 133 138 145 148 151 153 151 153 160 161 163 169 174 178 177 175 175 178 196 224 270 295 306 324 334 312 268 278 43 97 66 37 34 47 89 133 157 165 163 156 136 110
83 86 79 256 218 204 213 212 186 204 277 295 333 9 23 5 35 69 51 81 114 97 49 55 18 121 143 132 138 150 147 143 142 140 135 132 132 130 133 140 146 149 152 155 156 161 160 159 159 160 159 153 149 141 134 132 137 145 147 150 148 148 154 160 164 170 179 184 189 189 191 199 210 229 246 260 274 289 303 325 317 288 276 319 23 31 19 16 23 74 141 158 164 163 156 136 121
88 103 153 220 212 208 199 199 208 234 295 304 328 7 302 148 96 100 68 67 95 87 69 70 63 76 96 116 138 143 140 141 140 138 133 134 134 130 134 142 145 146 150 156 160 164 162 160 163 163 160 154 150 142 138 137 144 146 144 147 146 149 154 157 166 174 185 190 192 194 199 213 236 249 253 259 266 279 288 294 297 278 267 286 334 13 7 358 360 17 151 162 166 164 158 140 131
151 135 168 223 214 223 209 214 265 278 289 305 311 329 222 183 131 129 105 104 102 93 90 91 88 89 94 117 134 137 139 141 142 139 135 138 140 139 142 147 147 147 154 160 165 168 165 163 166 167 161 155 150 143 143 146 153 152 149 151 150 154 159 167 173 173 182 184 184 186 192 204 222 228 224 247 260 262 268 267 263 253 247 256 277 334 350 345 348 337 167 167 168 166 160 145 134
183 161 206 242 220 246 250 240 261 262 272 301 306 334 190 207 135 102 120 118 116 119 127 118 117 125 123 132 137 139 142 142 144 138 134 141 142 145 148 151 153 156 162 166 167 169 170 168 169 170 164 158 152 147 149 155 162 162 158 159 159 162 166 176 180 176 172 170 173 178 181 192 194 189 185 202 240 235 245 258 259 254 243 243 250 261 307 323 348 334 184 170 170 167 161 150 139
195 171 200 238 210 250 257 239 255 260 264 282 302 349 118 233 88 127 128 119 132 152 155 143 140 143 140 146 145 145 145 142 142 135 135 141 142 148 153 155 158 163 167 169 169 170 173 174 174 172 168 162 157 154 155 163 170 169 166 165 167 168 172 180 184 183 176 171 176 183 190 199 201 206 224 222 223 230 250 267 266 259 248 244 244 244 250 254 338 338 178 170 170 168 163 157 151
211 214 202 228 215 248 261 239 243 260 275 299 324 338 239 154 120 150 138 137 166 167 164 144 141 146 145 150 150 147 145 141 140 137 139 143 148 154 159 160 159 162 166 169 169 168 172 175 177 173 168 163 162 163 162 168 175 174 172 170 171 174 182 188 192 192 187 183 185 196 209 220 229 239 251 243 242 252 268 284 281 260 243 241 240 239 241 224 212 190 175 170 170 171 168 166 163
214 270 230 235 232 245 272 267 236 253 288 306 315 318 110 124 142 179 83 124 144 139 148 139 136 141 140 141 143 146 150 147 144 145 151 155 161 164 165 163 156 156 159 164 165 165 170 172 174 172 166 162 165 169 168 173 180 179 177 175 177 182 191 199 205 205 200 197 199 210 223 234 247 259 266 265 264 264 269 282 291 278 244 237 237 237 240 230 213 190 180 175 175 178 177 174 180
194 264 272 255 242 239 260 268 265 264 258 263 310 24 99 140 154 58 47 91 114 123 138 137 129 130 130 131 139 151 152 142 142 157 166 166 165 163 161 159 154 152 151 156 159 162 171 173 175 175 167 165 167 172 174 178 182 183 186 188 191 195 203 209 213 215 214 214 216 223 233 244 257 269 277 279 276 270 266 269 285 295 274 244 236 236 237 237 227 207 193 188 188 196 198 202 243
209 233 263 265 253 249 263 271 274 274 250 244 53 67 100 126 103 63 70 108 117 123 135 133 122 123 127 137 146 151 144 135 146 161 165 157 153 148 150 158 157 153 149 153 157 161 175 179 181 181 174 172 170 174 179 182 183 186 194 199 203 208 211 214 218 223 225 230 233 239 247 257 267 275 281 284 280 273 267 264 268 283 292 268 243 236 237 240 238 229 214 206 207 216 223 234 258
213 215 251 269 272 267 284 287 270 273 241 103 79 90 110 106 82 46 17 101 124 125 130 132 125 126 130 142 147 145 145 146 149 143 129 132 143 143 148 157 156 153 151 153 156 158 172 183 186 188 185 182 178 180 187 189 190 195 201 206 214 218 220 224 230 232 235 243 250 257 264 270 276 279 281 281 278 275 273 269 267 270 281 280 258 243 240 242 244 244 238 232 230 235 241 248 263
208 208 251 252 267 275 286 278 271 286 211 141 119 124 136 110 81 85 328 294 143 127 125 131 128 128 131 136 132 135 147 136 126 120 117 127 136 137 141 149 152 157 158 157 157 150 160 180 189 194 194 193 191 194 202 204 207 210 214 219 227 232 237 242 247 249 249 254 261 267 271 273 277 280 280 277 275 277 276 272 271 274 274 273 268 257 249 247 247 250 251 252 253 257 258 261 273
261 269 289 270 272 275 266 264 271 306 197 145 129 128 50 354 96 145 155 229 175 128 125 131 130 131 130 127 118 120 122 105 107 116 117 121 129 134 135 143 152 162 166 160 157 150 158 179 190 198 202 203 206 214 219 220 224 229 232 235 243 248 252 258 260 260 261 264 269 272 274 275 276 278 278 275 274 275 276 273 271 273 273 268 267 265 261 255 251 251 254 259 262 268 270 272 278
307 325 298 295 337 302 254 249 257 273 160 147 130 97 348 360 128 147 138 146 178 130 126 128 127 130 125 120 118 117 107 97 95 94 96 108 126 133 134 142 147 152 162 161 161 164 173 186 192 201 208 212 216 223 228 231 234 238 241 244 251 256 262 271 272 271 272 274 275 276 278 278 279 280 279 277 273 271 272 272 270 271 272 269 264 264 265 265 262 258 257 260 263 269 273 277 280
321 347 164 297 4 332 261 242 248 242 243 157 129 101 310 291 134 149 146 143 158 138 125 127 125 125 123 125 127 113 96 87 81 77 81 95 112 123 130 138 137 135 145 155 165 173 185 194 199 207 214 224 229 230 233 233 236 240 243 244 248 256 265 275 279 281 281 281 280 280 282 282 283 284 284 282 274 271 270 270 268 269 273 273 270 267 266 269 271 270 268 267 268 271 275 278 280
326 316 9 344 101 276 284 263 196 190 293 23 94 104 227 169 132 149 157 145 148 142 126 125 126 126 126 125 117 100 83 83 81 78 78 89 102 110 117 128 134 135 137 146 160 173 188 196 203 216 224 237 239 239 237 232 237 241 242 242 243 253 265 274 280 284 286 285 283 285 287 286 286 286 286 285 278 272 271 271 270 270 276 280 279 277 273 271 272 273 275 274 275 275 276 278 279
16 89 318 336 163 259 302 277 181 168 300 9 82 122 184 167 156 163 168 151 141 136 135 136 136 134 129 116 97 91 81 82 82 80 83 91 96 100 106 119 133 141 142 147 157 167 180 185 191 208 217 233 242 242 241 236 235 234 232 230 236 252 263 271 280 287 292 293 292 294 295 294 296 294 288 283 276 270 270 271 273 276 280 283 284 286 283 278 276 274 273 273 276 277 278 278 278
354 111 233 247 172 237 311 283 224 162 118 7 53 147 165 189 184 180 176 159 144 141 143 136 129 123 119 111 100 101 91 82 78 78 85 90 91 93 99 110 122 132 140 145 151 156 161 167 178 198 214 235 243 240 235 225 217 211 212 222 235 249 257 268 283 289 297 303 303 307 310 308 309 310 301 285 275 272 273 272 274 278 280 283 287 290 290 287 284 280 276 272 273 275 278 278 275
312 14 199 230 186 181 259 276 264 82 95 65 30 138 166 191 180 176 172 163 154 147 136 116 104 100 107 107 106 105 97 87 83 87 89 89 88 90 96 105 115 121 127 136 144 152 159 167 179 197 226 236 232 228 216 201 193 192 212 241 247 243 251 277 292 296 309 315 315 319 320 316 315 320 321 302 282 277 277 275 275 278 280 284 289 292 293 291 288 287 285 282 278 277 277 277 276
185 182 138 228 201 162 210 239 226 66 66 135 145 138 168 176 170 170 168 162 155 143 130 125 130 129 116 110 110 107 100 95 98 98 93 92 94 94 98 104 112 115 118 128 137 151 163 171 180 181 187 194 190 196 207 204 214 218 231 261 261 251 269 297 303 309 319 320 319 322 321 318 318 322 325 322 306 292 286 281 280 284 285 287 292 295 296 295 293 292 291 291 288 283 279 277 277
168 176 142 161 177 218 230 251 228 105 80 25 3 134 153 164 164 151 138 156 153 140 131 131 128 120 117 114 112 106 99 100 107 106 99 96 97 95 95 95 99 103 104 109 114 126 141 145 149 149 153 173 176 182 223 239 260 266 273 285 276 273 287 303 312 320 323 321 319 320 320 320 321 324 328 328 323 314 308 305 305 306 303 301 300 300 300 300 298 296 294 293 293 290 285 279 276
147 138 132 160 176 256 259 278 275 119 96 354 340 87 109 135 128 69 28 353 156 139 127 122 116 115 120 112 104 99 95 94 96 99 97 95 93 91 89 88 90 91 92 96 96 96 100 103 101 99 103 114 120 120 136 275 289 305 320 320 318 319 319 318 325 331 329 325 322 320 321 323 325 330 333 332 326 322 323 324 325 324 322 320 313 306 303 303 303 302 298 294 292 289 286 283 278
145 141 143 166 203 247 271 256 266 79 88 12 10 82 71 68 75 64 59 34 351 332 125 118 111 111 112 104 102 99 100 95 87 86 89 89 87 87 87 86 87 86 86 91 91 91 95 96 96 96 100 105 101 96 90 67 30 11 5 2 359 351 343 337 341 349 343 336 332 330 331 328 327 329 330 330 325 323 323 322 322 322 324 324 318 311 306 304 306 305 301 298 295 288 286 286 281
155 143 136 181 248 238 293 334 343 24 88 139 102 88 75 66 75 70 94 113 316 293 142 115 112 113 108 106 108 111 110 96 83 80 83 85 84 85 86 84 86 86 87 90 91 93 96 95 95 97 101 103 99 98 95 68 39 25 26 13 4 360 2 359 357 358 352 351 354 347 342 336 334 337 337 333 329 329 327 322 317 316 318 318 314 312 311 310 310 307 302 299 297 292 287 287 282
148 135 141 205 243 165 353 347 6 25 77 141 123 96 92 84 90 96 91 117 215 288 97 98 105 110 105 106 111 117 111 98 88 83 77 80 79 80 82 82 84 86 84 85 88 90 91 91 92 94 97 97 94 92 88 77 52 22 33 12 19 32 37 36 26 18 7 6 8 357 351 346 345 350 352 349 343 343 343 339 332 325 323 321 318 319 320 319 315 311 307 298 294 290 284 285 285
184 174 169 181 191 145 131 114 53 46 51 129 117 87 101 104 115 130 103 103 126 21 82 91 99 104 100 104 106 99 97 96 95 87 77 77 76 77 81 83 82 80 78 79 83 85 84 86 88 88 91 90 83 75 78 92 94 97 103 88 78 70 60 51 39 33 30 26 23 17 11 6 7 12 14 11 2 359 1 0 356 346 341 338 334 329 327 324 319 316 312 305 299 291 282 283 285
230 219 189 166 146 120 118 120 85 64 28 239 136 98 191 93 119 148 135 133 131 103 93 92 99 108 107 109 106 90 86 93 93 86 82 80 81 82 81 80 81 78 77 77 78 81 81 81 81 80 80 79 74 66 65 82 90 91 92 84 78 70 60 52 43 40 40 40 37 31 23 16 17 21 22 22 13 7 7 7 4 358 352 348 343 335 328 325 323 322 319 312 306 298 290 283 282
232 232 176 153 135 128 134 123 96 106 208 243 211 172 168 105 163 175 146 146 150 146 126 110 106 113 111 110 101 94 93 97 95 87 82 81 84 85 79 77 79 78 78 78 77 78 79 78 77 74 72 71 69 65 59 67 78 81 82 80 75 70 65 58 52 51 50 47 43 36 28 21 19 20 19 21 18 12 10 7 3 359 353 348 343 335 328 326 325 324 322 315 308 303 295 285 283
228 220 158 145 142 154 162 135 124 165 208 255 259 145 143 154 176 165 146 145 147 150 138 132 135 113 104 101 96 99 103 99 98 94 84 82 85 85 82 78 78 81 82 80 78 79 80 80 79 77 74 70 67 66 62 62 68 73 76 76 71 67 64 56 50 49 46 43 41 40 36 31 30 29 27 28 26 23 20 15 9 2 358 352 346 339 332 331 330 328 326 320 314 310 302 292 287
215 183 149 153 167 179 176 148 147 163 148 236 257 166 152 183 148 139 140 139 144 162 156 144 135 118 109 108 104 101 99 92 95 98 89 86 88 87 86 84 83 84 83 81 81 81 82 82 81 80 77 75 72 71 70 65 63 64 64 62 61 59 55 50 42 34 29 27 28 30 31 30 30 30 32 32 29 27 24 20 15 9 4 360 355 349 342 338 336 332 329 324 319 315 309 300 290
195 151 123 133 168 182 170 154 141 129 162 214 223 191 154 191 171 145 142 152 169 172 158 147 134 124 122 118 111 103 97 94 94 95 91 88 93 94 92 88 85 84 83 86 85 82 82 80 78 78 78 82 83 82 79 73 65 56 51 50 50 48 43 38 30 24 20 15 15 19 22 24 23 21 21 22 20 18 15 13 12 8 4 1 357 354 351 346 342 335 330 324 319 315 309 304 296
142 125 78 53 123 107 97 117 108 126 218 223 202 186 142 181 221 177 165 170 168 162 149 147 134 124 127 116 110 108 102 101 96 94 94 92 95 96 94 89 85 83 83 85 85 83 82 78 76 78 81 84 85 84 82 77 71 64 56 53 49 46 41 34 30 28 24 20 20 20 22 25 25 22 15 11 10 6 2 3 7 6 3 359 356 354 352 349 345 339 333 326 321 318 314 310 302
133 118 127 67 325 20 43 19 89 165 240 242 189 162 125 219 224 188 178 150 152 157 150 144 133 123 126 115 111 112 105 102 93 91 94 93 92 91 92 91 85 80 78 79 82 86 86 83 83 83 83 84 85 86 83 77 75 71 66 63 58 53 50 48 46 43 37 33 30 27 27 27 26 24 19 13 10 6 2 360 4 6 5 2 359 357 353 348 345 341 339 336 332 328 324 317 307
149 122 139 158 257 226 202 253 181 203 245 265 172 148 163 247 238 204 169 133 138 146 135 134 129 124 126 119 117 112 104 103 93 93 98 94 94 94 99 100 89 79 77 80 85 92 95 93 91 88 84 86 89 89 84 79 78 75 71 68 64 61 60 59 59 54 48 43 38 34 32 29 27 26 23 19 15 12 8 5 4 6 10 9 2 358 353 347 344 341 341 340 337 335 331 324 315
174 161 159 169 162 169 210 216 234 229 249 315 160 158 189 263 290 270 173 137 125 119 116 122 122 122 122 115 112 103 102 107 101 104 108 99 101 105 109 106 91 84 85 87 91 99 102 99 96 92 87 88 90 88 85 82 82 80 76 71 67 66 64 63 61 56 52 47 43 40 36 33 31 29 27 22 16 10 7 7 3 3 12 11 1 356 354 350 348 345 343 343 339 336 332 327 322
177 158 140 165 173 164 196 197 184 202 205 337 350 169 203 229 310 308 146 130 115 110 113 114 114 117 115 107 105 105 107 112 111 112 110 108 112 108 104 99 92 92 93 93 97 104 106 103 100 95 89 89 90 88 86 84 84 83 79 74 70 68 66 64 62 56 52 47 41 39 36 33 31 28 25 19 13 7 4 5 2 5 14 9 359 357 353 349 350 348 344 342 340 339 334 328 326
182 139 139 195 198 144 118 177 173 159 134 24 322 180 317 31 36 45 124 124 113 114 118 118 116 114 112 107 109 114 117 119 118 116 113 116 113 99 95 96 94 95 97 98 104 109 108 104 100 96 93 92 91 88 86 85 85 82 78 75 71 68 65 61 59 55 51 47 44 41 39 36 31 28 23 16 11 8 8 10 11 16 19 8 0 359 354 350 350 349 347 344 339 337 335 330 328
167 156 180 206 164 121 116 184 134 102 124 142 203 166 125 90 57 118 131 123 118 125 127 126 124 118 116 114 118 122 125 126 122 122 125 118 103 95 97 100 97 96 97 102 109 110 108 104 101 99 96 94 92 89 88 86 84 81 76 74 69 63 61 59 57 55 51 49 48 46 43 39 35 32 27 22 17 16 19 22 23 26 20 9 3 360 355 351 347 345 345 343 340 337 334 332 330
145 183 192 152 82 102 131 151 49 56 127 165 265 191 181 180 199 148 137 129 131 136 133 131 128 126 124 122 127 133 133 133 131 131 127 110 100 103 107 104 101 100 101 106 110 109 106 105 103 101 96 94 92 91 90 87 83 79 75 72 68 64 63 62 60 56 52 49 48 46 44 40 37 35 31 27 24 24 27 28 30 29 20 14 12 9 5 0 353 347 342 338 336 334 331 329 330
155 180 173 142 165 216 138 153 172 129 137 233 231 201 208 206 187 162 153 151 149 143 140 141 139 136 132 128 133 136 135 138 136 132 121 107 111 114 112 108 104 101 100 104 107 108 107 105 104 101 97 96 96 94 91 86 82 80 75 72 70 69 69 66 61 56 52 50 48 47 45 41 37 35 33 30 28 27 27 27 31 29 21 20 20 17 15 12 8 4 356 347 338 332 327 323 322
119 148 164 161 176 186 164 164 162 140 152 203 175 186 225 221 181 171 169 165 155 150 148 145 142 140 134 133 137 138 140 143 135 124 111 115 121 119 114 109 101 97 98 102 105 106 107 105 104 103 101 100 98 95 92 88 84 82 78 74 72 72 71 68 64 57 51 49 49 48 47 41 37 34 33 34 33 29 27 27 30 26 18 17 17 15 14 12 10 8 4 359 351 343 335 328 320
158 153 174 175 127 134 153 143 107 124 146 165 158 204 238 217 182 180 175 164 153 148 143 138 137 136 134 137 141 141 140 136 130 124 122 124 122 114 107 102 98 98 101 105 106 106 106 106 105 105 104 102 99 97 96 92 88 86 82 79 74 72 71 70 67 60 52 49 49 50 48 42 37 34 33 36 37 36 34 32 30 24 17 15 13 12 12 10 8 5 2 2 0 353 345 340 333
165 165 182 176 140 121 141 214 245 102 129 162 161 202 249 259 199 179 168 155 146 139 134 132 133 134 136 141 140 137 133 130 134 132 129 127 121 110 102 99 100 102 104 107 108 107 108 107 107 107 105 103 100 99 99 96 92 88 84 81 78 74 72 69 66 62 56 51 49 51 49 42 38 36 37 39 40 39 36 33 28 23 18 15 13 11 10 9 7 4 1 2 2 357 350 344 341
Height
770 770 770 770 769 768 770 772 786 794 795 805 801 796 784 772 774 772 768 764 763 759 754 755 756 757 760 767 775 778 781 780 780 785 784 776 773 777 779 780 783 785 786 787 789 791 792 794 795 796 797 797 798 798 799 799 800 801 801 802 802 802 803 803 804 804 805 805 806 807 808 809 809 810 811 811 812 812 813 814 814 814 814 814 815 815 815 816 816 816 816 816 817 817 817 817 818
770 771 769 770 768 770 776 777 794 804 802 811 803 793 781 772 775 770 766 765 763 758 753 754 757 760 761 764 769 773 778 779 776 775 774 773 776 779 780 780 782 784 785 787 789 790 792 794 795 796 796 797 798 799 800 800 801 801 802 803 803 804 804 805 805 805 806 807 807 808 809 809 810 811 811 812 813 813 814 814 815 815 815 815 816 816 816 817 817 817 817 817 818 818 818 818 819
770 770 769 770 770 772 779 782 798 809 808 811 801 788 779 776 774 767 764 762 759 754 752 754 758 762 764 768 769 775 781 778 775 773 774 775 777 780 781 781 782 784 785 787 789 790 791 793 794 796 797 798 799 800 800 801 802 802 803 803 804 805 805 806 806 807 807 808 809 809 810 810 811 811 812 813 813 814 815 815 815 816 816 816 817 817 817 818 818 818 818 818 819 819 819 819 820
770 770 770 770 774 777 784 790 799 805 808 809 799 783 776 775 768 765 764 760 757 753 754 756 763 764 765 775 775 778 783 779 776 775 777 778 778 780 781 782 783 784 785 786 788 790 791 793 795 796 797 798 799 800 801 802 803 803 804 804 805 805 806 807 807 808 809 809 810 810 811 811 812 812 813 813 814 815 815 816 816 817 817 817 818 818 818 818 819 819 820 820 820 820 820 820 821
770 771 771 770 778 782 786 796 801 802 800 799 793 778 772 771 766 767 764 759 757 756 757 757 767 767 766 774 775 780 782 778 777 776 778 779 780 781 781 782 783 784 785 786 788 790 792 794 796 797 798 799 800 801 801 803 803 804 805 805 806 807 808 808 809 810 810 811 811 812 812 813 813 813 814 814 815 815 816 817 817 818 818 818 818 819 819 819 820 820 820 820 820 821 821 821 821
771 771 771 771 778 780 788 798 801 800 789 786 785 773 769 767 766 768 764 760 756 757 757 758 764 768 773 775 773 777 777 776 777 777 778 779 780 781 781 781 782 784 785 787 789 791 793 795 797 798 799 800 800 801 802 803 804 805 806 806 807 808 809 810 810 811 812 812 813 813 814 814 814 815 815 816 816 817 817 817 818 818 819 819 819 820 820 820 820 821 821 821 821 821 821 822 822
771 772 774 776 780 782 794 800 797 797 786 781 779 770 767 765 766 768 766 765 762 760 759 761 759 766 780 777 776 777 773 775 775 777 778 778 780 781 782 782 783 785 786 788 790 792 795 797 798 799 800 800 801 803 804 804 805 806 807 808 809 810 811 812 812 813 813 814 814 815 816 816 816 817 817 817 818 818 818 819 819 819 820 820 820 821 821 821 821 821 821 821 821 821 822 822 823
771 774 777 782 788 790 798 799 795 795 784 777 774 768 766 762 765 768 769 768 767 766 764 764 757 769 783 776 781 781 774 776 775 777 778 778 780 780 782 783 784 786 788 789 791 794 796 798 800 801 801 802 803 804 805 806 807 808 809 810 811 812 813 814 814 815 815 816 816 817 818 818 818 818 818 819 819 819 820 820 820 820 821 821 821 821 821 821 821 822 822 822 822 822 822 822 823
771 775 780 785 793 796 799 798 793 789 782 776 771 766 762 759 762 767 769 769 767 768 767 763 757 771 784 780 784 781 776 778 776 778 779 780 781 781 783 783 785 786 789 791 793 796 798 801 801 802 803 803 804 805 806 807 809 809 810 812 813 814 814 815 816 816 817 817 818 819 819 820 820 820 820 820 820 821 821 822 822 822 821 821 821 821 822 822 822 822 822 822 822 822 823 823 824
774 777 781 788 795 800 801 797 791 786 779 773 769 763 759 757 759 762 766 767 765 768 768 761 759 771 781 784 786 780 779 780 778 781 781 782 783 783 785 785 786 787 791 793 796 798 800 803 803 804 805 805 806 806 808 809 810 810 812 813 814 815 816 817 817 818 818 819 820 821 821 821 822 822 822 822 821 822 822 822 822 823 822 822 822 822 822 822 822 822 822 823 823 823 823 824 824
779 780 781 791 798 801 800 795 790 784 777 772 767 759 756 755 757 761 763 764 764 769 767 761 767 773 778 785 786 781 780 781 780 783 784 785 786 786 786 787 788 789 792 795 798 800 802 804 805 806 806 807 807 808 809 810 811 811 812 813 815 816 817 818 818 819 820 821 821 822 822 822 823 823 823 823 823 823 823 823 823 823 823 823 823 823 823 823 822 822 823 823 824 824 825 825 825
782 784 783 794 799 797 795 794 789 781 776 772 765 753 751 752 756 759 760 763 765 771 765 761 768 769 779 788 785 783 782 782 782 783 787 787 787 787 787 789 790 792 794 797 799 801 803 805 806 807 808 808 809 810 810 811 812 812 813 814 816 817 818 819 820 820 821 822 822 823 823 823 823 824 824 825 825 824 824 824 824 824 824 824 823 823 823 823 823 822 823 823 824 825 826 826 826
782 785 786 793 796 793 792 793 786 781 777 769 761 751 748 751 753 754 756 761 765 771 764 758 761 763 779 788 783 784 783 783 782 785 787 788 788 788 789 791 793 794 796 798 800 802 804 806 807 808 809 809 810 811 811 812 813 813 815 815 816 817 819 820 820 821 822 822 823 823 824 824 824 824 825 825 826 825 825 825 825 825 825 825 824 824 824 824 823 823 823 824 824 825 826 827 827
779 782 784 790 794 791 788 788 783 784 778 762 758 751 747 749 747 747 752 763 767 765 759 755 756 764 780 787 787 786 783 783 784 786 787 788 789 790 791 793 795 797 798 800 801 803 805 807 808 809 809 810 811 812 813 813 814 815 816 816 817 818 819 820 821 822 822 823 823 824 824 824 825 825 826 826 826 826 825 825 825 825 825 825 825 825 825 825 824 824 824 824 825 826 827 828 828
776 779 783 788 792 790 786 785 780 783 775 759 758 752 749 748 743 745 748 759 766 757 755 758 755 766 779 781 785 783 780 783 784 786 787 789 791 791 793 795 797 798 800 802 803 805 806 807 808 809 810 810 811 812 814 814 815 816 816 817 818 819 820 821 822 822 822 823 823 824 824 825 825 826 826 826 826 826 826 826 826 826 826 826 826 826 826 825 825 824 824 825 826 827 828 829 829
774 778 785 790 792 791 787 782 778 781 772 759 757 752 754 751 742 747 746 748 759 757 757 762 756 760 771 772 775 776 778 783 784 786 787 790 791 793 795 796 799 800 802 803 804 806 806 808 808 809 810 811 812 813 815 815 816 817 817 818 819 820 820 821 822 822 823 823 823 824 825 825 826 826 827 827 827 827 827 827 827 827 827 827 827 826 826 826 825 825 825 825 826 827 828 829 830
773 779 790 793 793 791 784 779 776 776 768 758 755 753 759 756 746 747 745 745 756 762 762 763 758 757 764 768 771 773 778 782 784 786 787 790 792 794 796 798 800 801 804 804 805 806 806 808 808 809 810 811 813 813 815 816 817 817 817 818 819 820 820 821 822 822 822 823 824 824 826 826 827 827 827 827 827 827 827 828 828 828 828 828 828 827 827 827 826 826 826 826 827 828 829 829 830
776 784 792 793 793 787 777 773 770 768 765 759 756 755 760 759 753 748 751 758 760 764 767 765 763 763 765 769 773 776 779 782 784 786 787 790 792 794 797 799 801 802 804 805 805 806 807 808 808 810 811 812 813 814 815 815 817 817 817 818 819 820 820 821 821 821 822 823 824 826 827 827 827 827 826 827 827 828 828 828 828 828 828 828 828 828 828 828 828 827 827 827 827 828 829 830 830
777 785 791 790 786 777 768 767 764 763 763 759 756 755 758 757 753 750 758 769 764 767 774 770 771 773 772 773 776 778 780 783 785 786 787 790 792 794 796 799 801 803 803 804 805 806 807 808 808 810 810 812 813 814 815 815 816 816 817 817 818 819 820 821 821 821 822 824 825 826 827 827 826 826 827 827 827 827 827 828 828 828 828 828 829 829 829 829 829 828 828 828 828 829 830 830 830
775 780 788 783 775 770 764 764 762 760 759 759 757 754 757 755 750 752 761 770 768 769 772 772 776 776 776 776 776 779 781 784 786 787 789 791 793 794 796 798 800 801 802 803 804 805 807 807 809 810 811 812 813 814 815 815 816 816 817 817 818 819 820 820 821 821 823 824 826 826 826 826 827 827 827 827 827 827 827 828 828 828 828 829 829 829 829 829 829 829 829 829 829 830 831 831 831
773 776 781 774 769 769 762 760 759 757 757 757 757 755 758 754 750 755 759 770 776 770 762 762 769 772 774 776 776 779 782 785 787 788 790 792 793 794 795 796 798 799 801 802 803 805 807 808 809 811 812 813 814 814 815 816 816 816 817 818 819 819 820 820 820 821 823 824 825 825 826 826 827 828 828 828 828 828 828 828 828 828 829 829 829 829 830 830 830 830 830 830 830 831 832 832 832
773 772 772 768 767 767 759 757 758 755 754 756 757 756 756 754 755 757 755 764 771 766 759 756 760 764 768 771 775 778 782 785 788 789 790 791 792 792 793 794 797 799 801 803 804 806 807 809 810 811 813 814 815 815 815 816 816 816 817 818 819 819 819 820 820 821 823 824 825 825 825 826 827 828 829 829 829 829 828 828 828 828 828 829 830 830 831 831 831 831 830 831 831 832 832 832 832
773 771 767 765 765 764 757 754 756 754 754 757 757 754 753 756 760 757 755 759 759 758 760 759 760 763 765 769 774 778 782 785 787 788 789 789 789 790 792 795 798 801 803 805 806 807 808 809 811 812 813 814 814 815 815 816 816 816 817 818 819 819 819 820 821 822 824 825 825 825 826 827 828 828 829 829 829 830 829 829 829 828 828 829 830 830 831 831 831 831 831 831 832 832 832 833 833
772 772 766 763 763 761 756 754 755 754 756 756 754 754 755 760 761 758 759 760 757 757 761 763 764 766 769 772 775 778 781 785 787 787 787 787 789 791 795 798 801 803 804 806 807 808 809 810 811 812 813 814 814 815 815 815 815 816 818 819 819 820 820 821 822 823 825 825 825 826 826 827 828 829 829 829 830 830 830 830 829 829 829 829 830 830 831 831 832 832 832 832 832 832 832 832 833
771 771 765 762 761 757 753 754 754 753 755 754 754 757 760 760 758 762 766 762 759 760 763 766 768 770 773 775 777 779 781 784 786 787 789 792 794 795 798 799 801 803 805 806 808 809 810 811 812 813 813 814 814 814 815 815 816 817 818 819 820 820 820 821 822 824 825 825 826 826 827 828 828 829 829 829 829 830 830 830 830 830 829 830 830 830 831 831 832 832 832 832 832 832 832 832 832
767 766 764 761 760 756 753 753 752 752 753 754 758 763 762 757 757 770 774 767 763 763 766 769 771 774 777 778 779 780 781 784 786 789 793 795 796 797 799 800 802 804 806 807 808 810 811 812 813 814 814 815 815 815 815 816 817 818 818 819 820 820 821 822 823 824 825 825 826 826 827 828 828 828 829 829 829 829 830 830 830 830 830 830 830 830 831 831 831 831 832 832 832 832 831 831 831
762 762 763 760 760 757 754 753 749 751 752 752 759 766 763 755 760 777 779 773 767 765 770 772 773 777 779 781 782 782 783 785 789 792 793 795 797 799 801 803 805 806 807 808 809 810 811 813 814 815 816 816 816 816 816 817 818 818 819 820 820 821 821 822 823 824 825 825 826 826 827 827 828 828 828 828 829 829 830 830 830 830 830 830 830 830 830 830 831 831 831 831 831 831 831 830 830
760 762 762 760 760 758 755 752 749 750 752 751 756 763 763 759 764 774 776 777 774 768 772 774 775 779 780 783 784 785 787 788 791 793 794 797 799 800 802 804 806 807 808 809 810 811 812 813 815 816 817 817 817 817 817 818 818 818 819 820 820 821 822 823 823 824 825 825 826 826 827 827 828 828 828 828 828 829 829 829 829 829 830 830 830 830 829 829 830 830 830 830 830 830 830 830 829
760 761 764 762 760 759 756 751 748 749 751 749 752 764 770 768 771 773 772 778 778 773 774 776 778 780 782 784 785 787 789 791 793 794 796 798 799 801 803 804 806 807 808 810 811 811 812 813 815 816 817 817 817 817 818 819 819 819 819 820 820 821 822 822 823 824 824 825 826 826 827 827 827 827 827 828 828 828 828 829 829 828 829 829 829 829 829 829 829 829 829 830 830 829 829 829 829
761 762 765 766 766 763 756 752 749 749 750 745 750 773 785 778 774 773 771 775 780 779 777 778 781 782 783 785 787 789 790 792 794 796 797 798 800 801 803 805 806 807 809 810 811 812 813 814 815 816 817 817 817 818 819 819 819 819 819 820 820 821 821 822 822 823 824 825 825 826 826 826 826 826 827 827 827 827 828 828 828 828 828 828 828 829 829 829 829 829 829 829 829 829 828 828 828
764 765 767 772 775 768 757 754 753 752 751 743 748 779 793 782 776 774 771 771 776 781 780 780 782 783 785 786 788 790 791 793 795 797 798 798 800 801 803 805 806 808 809 810 812 813 814 814 815 816 817 817 817 818 819 820 820 819 819 820 820 821 821 822 822 823 823 824 825 825 826 825 825 825 826 826 826 826 827 827 826 827 827 827 828 828 828 828 828 828 828 828 828 828 827 827 827
768 772 777 779 777 769 759 754 754 753 752 746 751 778 792 783 777 776 773 772 773 780 781 780 783 784 786 788 790 791 793 794 796 798 799 799 801 802 803 805 806 808 809 811 812 813 814 815 816 817 817 818 818 818 819 820 820 820 819 819 819 820 821 821 822 822 823 823 824 824 825 825 824 824 825 825 825 825 825 826 826 826 827 827 827 827 827 827 827 827 827 827 827 826 826 825 825
774 777 781 780 775 771 765 757 753 752 753 753 756 775 789 784 779 777 775 774 774 778 781 782 786 787 788 790 792 793 794 796 797 799 800 800 802 803 804 805 807 809 810 811 812 813 815 815 817 817 817 817 818 819 820 821 821 820 820 819 819 820 820 821 821 822 822 822 822 823 824 824 824 824 823 824 824 824 825 825 826 826 827 827 827 827 826 826 826 826 825 825 825 824 824 824 823
781 780 780 778 775 774 770 762 756 754 756 759 761 771 781 778 776 776 776 776 776 778 782 788 793 794 793 792 794 794 796 797 798 800 801 801 803 804 805 806 808 809 810 812 813 814 815 816 817 817 817 817 818 819 820 821 821 821 821 820 820 820 820 821 821 822 822 822 822 822 822 822 823 822 822 823 823 824 824 825 826 826 826 826 826 826 826 826 825 825 824 824 824 823 822 822 821
781 781 779 778 776 774 770 763 758 758 760 762 763 770 776 775 774 775 774 775 778 782 785 789 792 794 795 794 795 796 797 798 799 801 802 803 804 805 806 807 808 810 811 812 814 815 815 816 817 817 818 818 818 819 820 821 821 822 822 821 820 820 820 820 821 821 821 822 822 821 822 822 821 821 821 822 822 823 823 824 825 825 825 825 824 824 824 825 824 824 823 823 822 822 821 820 820
775 776 776 776 775 773 769 763 758 759 766 773 773 774 777 776 778 781 780 779 781 783 785 786 788 792 794 796 796 797 798 799 800 801 802 804 805 806 807 807 809 810 812 814 814 816 816 817 818 818 819 818 818 819 820 821 822 822 822 821 821 820 821 821 821 821 822 822 822 821 821 821 821 821 821 821 821 822 822 823 824 824 824 823 823 823 823 823 823 823 822 822 821 821 820 819 819
771 773 775 776 775 773 767 764 762 758 768 785 786 783 783 782 786 790 789 789 788 786 786 786 788 792 794 796 797 798 800 800 801 802 803 805 806 807 808 808 810 811 813 814 815 816 817 817 818 819 819 819 819 820 821 822 822 821 821 821 821 821 821 821 821 822 822 822 821 821 821 821 821 821 821 821 821 821 821 822 822 822 822 822 822 822 822 822 822 822 821 821 820 820 819 818 818
772 774 776 778 778 774 766 764 765 758 767 789 789 786 791 791 794 796 793 795 796 795 794 789 789 793 795 796 799 800 801 801 802 804 805 807 808 808 809 810 811 812 814 815 816 817 818 818 819 820 820 820 820 821 822 822 822 821 821 821 821 821 821 821 822 822 822 821 821 821 820 820 820 820 820 820 821 821 821 821 821 821 821 821 821 821 821 821 821 821 821 819 818 818 817 816 816
774 775 777 780 777 773 769 766 767 763 772 791 791 790 797 796 798 799 796 797 799 800 797 790 791 795 797 799 801 802 802 803 804 807 808 808 810 810 810 812 813 815 816 817 818 818 819 819 820 821 821 821 821 822 822 822 822 821 821 821 821 822 822 822 823 822 822 821 821 820 819 819 819 819 820 820 820 820 820 820 820 820 820 820 820 819 819 819 820 820 819 818 817 816 815 814 815
774 776 778 780 775 773 775 776 777 772 776 787 789 793 799 800 802 802 800 800 799 799 797 793 794 796 799 801 803 804 803 805 807 809 810 810 812 812 813 815 816 816 817 818 819 820 820 821 821 822 822 822 823 823 823 822 822 822 822 822 823 823 823 823 823 822 822 821 821 821 820 819 818 818 819 818 819 819 819 819 820 819 819 819 819 818 818 818 818 818 818 817 816 815 813 812 812
776 775 776 778 774 772 776 781 781 780 782 783 786 797 803 803 806 805 804 804 801 801 801 799 799 799 801 803 804 805 804 807 809 811 812 813 814 815 816 818 818 818 819 820 821 821 821 822 822 822 822 822 823 823 823 823 823 823 823 823 823 824 824 824 823 823 823 822 822 822 821 820 819 819 818 818 818 818 818 818 818 818 818 818 818 817 817 816 816 817 816 815 814 813 812 811 810
777 773 772 773 772 772 779 783 784 795 800 786 784 802 808 805 807 807 806 807 804 806 807 806 805 803 804 806 806 806 807 809 811 812 814 815 816 818 819 819 819 820 821 822 823 823 823 823 823 823 823 823 824 824 825 824 824 824 824 824 824 825 825 825 826 825 824 824 824 823 822 822 821 820 819 819 819 818 818 818 818 817 817 817 817 816 815 815 815 814 814 813 812 811 810 810 808
778 771 767 769 769 772 781 783 786 803 804 784 781 798 807 808 809 808 807 808 808 810 811 810 810 808 807 808 807 808 811 812 813 815 816 818 819 820 820 821 821 821 823 823 824 824 824 824 824 824 824 824 825 825 826 826 825 825 825 825 826 826 827 827 828 827 826 826 825 824 823 822 822 821 820 820 820 819 818 818 818 817 817 816 816 816 815 814 813 813 812 811 810 809 809 808 806
776 768 764 768 769 772 779 781 785 794 792 784 782 787 798 807 807 807 808 810 813 814 813 813 812 810 809 809 809 811 813 814 814 816 818 820 821 821 822 822 822 823 824 824 825 825 825 825 826 825 825 825 826 826 827 827 827 826 826 826 826 827 827 829 828 828 827 827 826 826 825 824 823 822 822 821 820 819 819 818 818 817 816 816 816 815 814 813 812 811 810 809 808 807 807 806 804
768 762 760 763 766 768 773 779 785 787 790 794 789 784 796 807 804 805 809 812 816 816 815 814 813 811 811 811 812 813 814 815 816 817 819 822 822 822 823 823 824 825 825 825 826 826 826 827 826 826 825 826 827 828 828 829 828 828 827 827 827 827 828 829 829 828 827 827 827 826 826 824 824 823 822 822 821 820 819 819 818 817 817 816 815 814 813 812 811 810 809 808 806 805 804 804 803
761 757 757 760 765 767 771 780 785 789 796 797 790 786 796 806 804 804 810 812 813 814 812 813 812 811 813 814 814 814 816 818 819 818 821 823 823 824 825 825 825 826 826 826 827 827 827 827 826 826 827 828 829 829 830 830 829 828 828 828 827 828 829 829 829 828 827 827 827 826 826 825 824 823 822 821 821 820 820 820 819 818 817 815 815 814 813 812 810 809 808 806 805 804 803 802 802
756 757 759 764 768 769 774 781 784 796 803 791 784 787 791 800 802 800 803 801 801 806 808 809 811 812 814 815 815 816 818 821 821 820 823 825 825 825 825 826 827 827 828 828 827 828 828 828 828 828 829 830 830 831 831 830 830 829 829 829 828 829 829 829 828 828 828 828 827 827 826 826 825 823 822 821 820 820 820 820 819 818 816 815 814 813 812 811 809 808 807 805 804 802 802 801 800
757 760 764 771 776 775 780 786 788 799 801 784 780 787 790 795 795 793 793 791 792 799 804 807 810 814 816 816 817 818 819 822 823 823 825 827 826 826 826 827 828 828 829 828 827 828 829 830 831 831 832 833 833 833 832 832 831 831 830 830 829 829 829 829 829 829 830 829 828 828 827 826 825 824 823 821 820 820 820 820 819 818 816 815 814 813 811 810 808 807 805 804 802 801 800 799 798
761 764 769 781 788 789 791 795 796 797 791 783 782 784 789 794 792 791 790 789 792 797 800 805 809 814 817 818 820 821 821 824 825 826 828 829 828 828 829 829 830 830 830 829 829 830 831 833 833 833 834 835 835 834 834 833 833 832 832 831 831 831 830 830 831 831 831 830 829 828 827 827 826 824 823 822 822 821 820 820 819 818 817 816 814 812 811 810 808 806 805 803 802 800 799 798 796
765 767 771 782 791 797 801 801 801 795 787 789 787 783 790 795 793 794 791 789 793 796 800 804 808 814 818 820 822 823 824 826 827 829 829 830 831 831 831 831 831 831 830 830 831 833 834 835 835 835 836 836 836 836 836 835 835 835 834 833 833 833 832 832 832 832 831 831 830 829 829 828 827 826 825 824 823 822 821 820 820 819 817 816 814 812 811 809 808 806 804 803 801 799 798 797 795
762 761 765 775 777 782 792 793 790 790 792 795 792 790 796 796 794 795 791 790 794 797 802 806 810 815 818 821 824 826 828 828 829 830 830 831 832 833 833 833 832 831 831 832 834 835 836 837 837 837 838 838 838 838 838 837 837 837 836 835 835 834 834 834 833 833 832 832 831 830 830 828 827 827 826 825 824 823 822 821 819 818 817 815 814 812 811 809 807 805 804 802 800 799 797 795 794
760 757 762 770 764 763 779 784 781 785 792 798 801 802 803 798 797 797 792 793 797 801 805 809 813 817 819 823 826 828 829 830 830 830 831 832 833 834 834 834 833 833 834 835 836 837 838 838 839 839 840 840 840 840 840 840 840 838 837 837 837 836 836 836 835 835 834 833 832 831 830 830 828 827 826 825 824 823 822 820 819 818 817 815 814 812 810 809 807 805 803 801 800 798 796 794 793
758 760 761 759 750 753 771 784 788 785 786 800 810 809 806 803 801 799 796 798 802 806 808 811 816 819 821 825 827 829 831 830 831 831 832 834 834 835 836 835 836 836 836 837 838 839 839 840 840 841 841 842 842 842 842 842 841 840 839 839 839 838 838 838 837 836 835 833 833 832 831 830 829 828 827 826 824 823 822 820 819 818 817 816 814 812 810 808 806 804 802 801 799 797 795 793 792
753 759 754 749 751 757 762 773 788 788 788 805 815 809 805 805 803 801 801 802 805 808 811 813 817 820 822 826 828 830 831 831 832 833 833 835 835 836 837 837 838 838 839 839 840 840 841 842 842 842 843 844 844 845 844 844 843 842 842 841 841 841 840 840 838 837 836 834 834 833 832 831 830 829 828 826 825 823 822 821 819 819 818 816 815 812 810 808 806 804 801 799 798 795 794 792 790
738 743 740 745 759 766 763 769 781 786 799 814 813 807 805 801 800 799 799 802 804 808 812 814 818 820 822 826 829 830 832 832 833 834 835 835 836 837 838 838 839 840 841 841 841 842 842 843 844 844 845 846 846 846 846 845 845 844 844 844 843 843 842 841 840 838 837 835 835 834 833 832 831 830 828 827 825 824 822 821 820 820 819 817 815 812 810 807 805 803 800 798 796 794 792 790 788
732 735 738 742 749 755 758 766 769 775 801 816 807 806 803 792 792 794 793 797 800 804 811 814 816 820 822 825 828 830 831 833 833 834 836 836 838 839 839 839 840 840 842 843 843 844 844 845 846 846 847 848 848 848 847 847 846 846 846 846 846 845 843 842 841 839 838 837 836 835 834 833 832 831 829 828 826 825 823 822 821 821 819 817 815 812 810 807 805 802 800 798 795 793 790 788 786
737 742 746 744 745 748 752 762 766 771 794 809 807 807 798 784 783 786 787 794 798 801 808 813 816 820 822 824 827 829 831 833 834 834 836 838 839 840 840 840 841 842 843 844 845 846 846 847 847 848 849 849 849 848 848 848 848 848 848 848 847 846 844 843 842 841 840 839 838 836 835 835 833 832 831 829 827 826 825 824 823 822 820 817 815 812 810 807 805 802 800 797 795 792 790 788 785
731 737 743 743 743 748 757 766 772 774 781 792 797 795 788 782 781 781 787 794 798 802 807 812 817 819 822 825 825 828 831 833 834 835 836 838 840 841 842 841 843 843 844 846 847 847 848 849 849 849 850 850 850 849 849 850 850 850 850 849 848 846 845 844 843 843 842 841 840 838 837 837 835 834 832 830 829 827 826 825 824 822 820 818 815 813 810 807 805 802 799 797 794 792 790 787 785